SENTINEL-2A             
1 40697U 15028A   19265.31241304 -.00000047  00000-0 -13217-5 0  9995
2 40697  98.5720 338.3986 0001040  79.9780 280.1518 14.30814269221978
AVUM R/B                
1 40698U 15028B   19264.36489833 -.00000028  00000-0  36780-5 0  9999
2 40698  98.6380 165.2923 0256758 181.5424 178.5033 14.97335263231858